GW0762 Weather Reports


time (UTC)temp
C
wind
direction
speed
KPH
gust
KPH
rain 1hr
cm
rain 24hr
cm
rain mn
cm
humidity
%
barometer
mb
20260504140109 14 0 3.2 12.9 0.00 0.00 0.00 74 1014.0
20260504110118 5 0 0.0 1.6 0.00 0.00 0.00 90 1013.2
20260504100106 5 0 0.0 0.0 0.00 0.00 0.00 89 1013.2
20260504090123 5 0 0.0 0.0 0.00 0.00 0.00 88 1013.8
20260504081559 6 0 0.0 1.6 0.00 0.00 0.00 88 1013.9
20260504060103 9 0 0.0 0.0 0.00 0.00 0.00 84 1014.7
20260504050107 9 0 0.0 0.0 0.00 0.00 0.00 82 1015.3
20260504044603 9 0 0.0 1.6 0.00 0.00 0.00 82 1015.3
20260504043056 9 0 0.0 0.0 0.00 0.00 0.00 81 1015.5
20260504041556 9 0 0.0 0.0 0.00 0.00 0.00 80 1015.4
20260504040107 10 0 0.0 1.6 0.00 0.00 0.00 79 1015.7
20260504034605 10 0 0.0 0.0 0.00 0.00 0.00 79 1015.3
20260504033114 10 0 0.0 0.0 0.00 0.00 0.00 78 1015.3
20260504031600 10 0 0.0 1.6 0.00 0.00 0.00 76 1015.3
20260504030056 10 0 0.0 0.0 0.00 0.00 0.00 75 1015.4
20260504024605 10 0 0.0 0.0 0.00 0.00 0.00 73 1015.4
20260504023057 10 0 0.0 4.8 0.00 0.00 0.00 73 1015.2
20260504021602 10 0 0.0 3.2 0.00 0.00 0.00 71 1015.2
20260504020057 10 0 0.0 3.2 0.00 0.00 0.00 71 1014.9
20260504014558 10 0 0.0 0.0 0.00 0.00 0.00 70 1014.5
20260504013057 10 0 0.0 0.0 0.00 0.00 0.00 69 1014.7
20260504011557 11 0 0.0 0.0 0.00 0.00 0.00 68 1014.6
20260504010105 11 0 0.0 0.0 0.00 0.00 0.00 66 1014.7
20260504004602 11 0 0.0 0.0 0.00 0.00 0.00 65 1014.7
20260504003100 12 0 0.0 0.0 0.00 0.00 0.00 64 1014.7
20260504001614 12 0 0.0 0.0 0.00 0.00 0.00 62 1014.7
20260504000100 13 0 0.0 0.0 0.00 0.00 0.00 57 1014.8
20260503234559 14 0 0.0 1.6 0.00 0.00 0.00 53 1014.5
20260503233059 15 252 0.0 3.2 0.00 0.00 0.00 53 1014.5
20260503231559 16 243 0.0 4.8 0.00 0.00 0.00 49 1014.9
20260503230101 17 0 1.6 12.9 0.00 0.00 0.00 37 1015.1
20260503224558 17 0 1.6 12.9 0.00 0.00 0.00 38 1014.9
20260503223101 17 0 3.2 12.9 0.00 0.00 0.00 35 1015.3
20260503221559 17 329 3.2 12.9 0.00 0.00 0.00 34 1015.2
20260503220111 18 360 1.6 12.9 0.00 0.00 0.00 33 1015.2
20260503214559 18 355 4.8 24.1 0.00 0.00 0.00 33 1015.2
20260503213059 18 360 6.4 16.1 0.00 0.00 0.00 34 1015.5
20260503211610 18 327 3.2 14.5 0.00 0.00 0.00 31 1015.4
20260503210058 18 202 1.6 6.4 0.00 0.00 0.00 33 1015.6
20260503204607 17 360 3.2 16.1 0.00 0.00 0.00 33 1015.7
20260503203059 17 317 6.4 12.9 0.00 0.00 0.00 30 1015.9
20260503201602 17 19 1.6 9.7 0.00 0.00 0.00 39 1016.4
20260503200100 17 326 4.8 14.5 0.00 0.00 0.00 32 1016.5
20260503194600 17 360 1.6 8.0 0.00 0.00 0.00 32 1016.7
20260503193120 17 322 1.6 9.7 0.00 0.00 0.00 38 1017.0
20260503191602 17 360 3.2 17.7 0.00 0.00 0.00 33 1017.4
20260503190059 16 344 1.6 19.3 0.00 0.00 0.00 36 1017.7
20260503184558 16 360 3.2 12.9 0.00 0.00 0.00 36 1017.9
20260503183104 16 360 4.8 12.9 0.00 0.00 0.00 38 1018.2
20260503181623 15 0 1.6 9.7 0.00 0.00 0.00 36 1018.4
20260503180134 16 360 4.8 12.9 0.00 0.00 0.00 40 1018.7
20260503174559 15 360 1.6 14.5 0.00 0.00 0.00 38 1019.1
20260503173102 15 360 9.7 20.9 0.00 0.00 0.00 41 1019.3
20260503170104 15 360 0.0 6.4 0.00 0.00 0.00 42 1019.6